Location: Mannheim
(49.4880°N, 8.4650°E)
Time: 16:20:19
(UTC+02:00)

ISS - Pass Details

Date: 28 June 2024
Orbit: 409 x 423 km, 51.6° (Epoch: 22 July)

Event Time Altitude Azimuth Distance (km) Brightness Sun altitude
Exits shadow 02:59:54 18° 149° (SSE) 1,097 -2.0 -14.5°
Maximum altitude 03:00:17 18° 140° (SE) 1,085 -1.9 -14.5°
Drops below altitude 10° 03:02:42 10° 94° (E) 1,503 -0.7 -14.4°
Sets 03:05:11 0° 76° (ENE) 2,361 0.6 -14.2°
